This is the latest recevied weather packets stored in our database for station/object HK2LS-SM. If no packets are shown the sender has not sent any weather packets the latest 10 day(s).
| Time | Temp. | Humidity | Pressure | Rain* | Wind** | Luminosity | Snow |
|---|---|---|---|---|---|---|---|
| 1778316800 | 27.78° C | 75% | 1005.1 hPa | 0 mm | - | - | - |
| 1778316498 | 28.33° C | 75% | 1005.1 hPa | 0 mm | - | - | - |
| 1778313727 | 28.33° C | 75% | 1005.1 hPa | 0 mm | - | - | - |
| 1778312494 | 28.33° C | 74% | 1005.1 hPa | 0 mm | - | - | - |
| 1778311892 | 28.89° C | 73% | 1005.4 hPa | 0 mm | - | - | - |
| 1778310386 | 28.89° C | 73% | 1005.8 hPa | 0 mm | - | - | - |
| 1778309753 | 28.89° C | 74% | 1005.8 hPa | 0 mm | - | - | - |
| 1778309452 | 28.89° C | 75% | 1005.8 hPa | 0 mm | - | - | - |
| 1778308787 | 29.44° C | 78% | 1005.8 hPa | 0 mm | - | - | - |
| 1778308153 | 29.44° C | 81% | 1006.1 hPa | 0 mm | - | - | - |
| 1778301737 | 29.44° C | 75% | 1006.4 hPa | 0 mm | - | - | - |
| 1778298963 | 29.44° C | 75% | 1006.8 hPa | 0 mm | - | - | - |
| 1778298361 | 30° C | 73% | 1006.8 hPa | 0 mm | - | - | - |
| 1778297456 | 30° C | 73% | 1006.8 hPa | 0 mm | - | - | - |
| 1778295649 | 30° C | 73% | 1006.8 hPa | 0 mm | - | - | - |
| 1778291941 | 29.44° C | 74% | 1005.8 hPa | 0 mm | - | - | - |
| 1778291338 | 29.44° C | 74% | 1006.1 hPa | 0 mm | - | - | - |
| 1778290133 | 29.44° C | 73% | 1006.1 hPa | 0 mm | - | - | - |
| 1778288565 | 30° C | 71% | 1005.8 hPa | 0 mm | - | - | - |
| 1778288263 | 30° C | 70% | 1005.8 hPa | 0 mm | - | - | - |
| 1778287328 | 30.56° C | 69% | 1005.4 hPa | 0 mm | - | - | - |
| 1778286726 | 30.56° C | 69% | 1005.4 hPa | 0 mm | - | - | - |
| 1778286424 | 30.56° C | 69% | 1005.4 hPa | 0 mm | - | - | - |
| 1778285821 | 30.56° C | 69% | 1005.4 hPa | 0 mm | - | - | - |
| 1778285187 | 30.56° C | 69% | 1005.4 hPa | 0 mm | - | - | - |
* Rain latest hour (hover to see other rain measurements)
** Current wind speed in m/s (hover to see current wind gust speed)